Location: Caltech
(34.1382°N, 118.1253°W)
Time: 15:35:28
(UTC-07:00)

OAO 2 Rocket - Visible Passes

Search period start: 24 September 2016 00:00
Search period end: 04 October 2016 00:00
Orbit: 676 x 747 km, 35.0° (Epoch: 23 September)

Date Brightness Start Highest point End Pass type
(mag) Time Alt. Az. Time Alt. Az. Time Alt. Az.
24 Sep 5.1 05:28:11 10° SSW 05:32:36 27° SSE 05:37:02 10° E visible
25 Sep 5.4 04:34:05 18° SSE 04:35:08 18° SSE 04:38:44 10° ESE visible
25 Sep 4.0 06:14:15 10° WSW 06:19:27 56° SSE 06:24:39 10° E visible
26 Sep 4.3 05:18:54 22° SSW 05:21:51 42° SSE 05:26:52 10° E visible
27 Sep 4.8 04:24:40 30° SE 04:24:40 30° SE 04:28:56 10° E visible
27 Sep 3.6 06:03:39 11° WSW 06:08:51 77° SSE 06:14:11 10° E visible
28 Sep 6.2 03:30:23 11° ESE 03:30:23 11° ESE 03:30:44 10° E visible
28 Sep 3.7 05:09:22 38° SW 05:11:12 61° SSE 05:16:27 10° E visible
29 Sep 4.6 04:15:01 37° ESE 04:15:01 37° ESE 04:18:40 10° E visible
29 Sep 3.4 05:54:00 16° W 05:58:20 88° N 06:03:40 10° E visible
30 Sep 6.4 03:20:39 11° E 03:20:39 11° E 03:20:46 10° E visible
30 Sep 3.3 04:59:37 59° WSW 05:00:38 81° SSE 05:05:58 10° E visible
01 Oct 4.9 04:05:14 34° E 04:05:14 34° E 04:08:13 10° E visible
01 Oct 3.4 05:44:12 21° W 05:47:51 81° N 05:53:11 10° E visible
02 Oct 3.2 04:49:47 79° WNW 04:50:07 85° N 04:55:27 10° E visible
03 Oct 5.3 03:55:23 27° E 03:55:23 27° E 03:57:43 10° E visible
03 Oct 3.4 05:34:21 26° W 05:37:22 83° N 05:42:42 10° E visible
